Location: Denia
(38.8500°N, 0.1170°E)
Time: 20:07:58
(UTC+01:00)

Envisat - Pass Details

Date: 29 January 2020
Orbit: 764 x 766 km, 98.1° (Epoch: 19 February)

Event Time Altitude Azimuth Distance (km) Brightness Sun altitude
Rises 06:25:30 0° 32° (NNE) 3,237 6.6 -20.2°
Reaches altitude 10° 06:28:44 10° 54° (NE) 2,305 6.1 -19.6°
Maximum altitude 06:31:48 16° 91° (E) 1,914 6.1 -19.0°
Drops below altitude 10° 06:34:52 10° 129° (SE) 2,295 6.3 -18.4°
Sets 06:38:03 0° 151° (SSE) 3,215 6.8 -17.8°
